Location: Middlebury
(44.0153°N, 73.1678°W)
Time: 09:57:36
(UTC-04:00)

UWE-3 - Pass Details

Date: 23 June 2024
Orbit: 566 x 652 km, 97.8° (Epoch: 12 July)

Event Time Altitude Azimuth Distance (km) Brightness Sun altitude
Rises 02:22:00 0° 29° (NNE) 2,867 ? -19.7°
Reaches altitude 10° 02:24:53 10° 50° (NE) 1,939 ? -19.5°
Maximum altitude 02:27:38 17° 91° (E) 1,518 ? -19.3°
Enters shadow 02:30:17 10° 132° (SE) 1,883 ? -19.1°
